| time (UTC) | temp F | wind direction | speed knots | gust knots | rain 1hr in | rain 24hr in | rain mn in | humidity % | barometer mb |
| 20260510135828 | 54 | 28 | 3.5 | 9.6 | 0.00 | 0.00 | 0.00 | 49 | 1014.8 |
| 20260510135326 | 55 | 68 | 4.3 | 9.6 | 0.00 | 0.00 | 0.00 | 49 | 1014.8 |
| 20260510134828 | 55 | 51 | 2.6 | 8.7 | 0.00 | 0.00 | 0.00 | 49 | 1014.8 |
| 20260510134718 | 55 | 41 | 4.3 | 8.7 | 0.00 | 0.00 | 0.00 | 49 | 1014.9 |
| 20260510133827 | 55 | 37 | 3.5 | 9.6 | 0.00 | 0.00 | 0.00 | 49 | 1014.8 |
| 20260510133756 | 55 | 11 | 3.5 | 9.6 | 0.00 | 0.00 | 0.00 | 49 | 1014.9 |
| 20260510133219 | 55 | 45 | 2.6 | 6.1 | 0.00 | 0.00 | 0.00 | 49 | 1014.7 |
| 20260510132326 | 55 | 42 | 1.7 | 5.2 | 0.00 | 0.00 | 0.00 | 49 | 1014.8 |
| 20260510131825 | 55 | 51 | 2.6 | 6.1 | 0.00 | 0.00 | 0.00 | 49 | 1014.8 |
| 20260510131724 | 55 | 54 | 2.6 | 6.1 | 0.00 | 0.00 | 0.00 | 49 | 1014.8 |
| 20260510130824 | 55 | 306 | 1.7 | 5.2 | 0.00 | 0.00 | 0.00 | 49 | 1014.9 |
| 20260510130325 | 55 | 8 | 2.6 | 10.4 | 0.00 | 0.00 | 0.00 | 49 | 1015.0 |
| 20260510125825 | 55 | 334 | 2.6 | 10.4 | 0.00 | 0.00 | 0.00 | 49 | 1015.0 |
| 20260510125724 | 56 | 13 | 3.5 | 6.1 | 0.00 | 0.00 | 0.00 | 49 | 1015.0 |
| 20260510124824 | 56 | 48 | 2.6 | 6.1 | 0.00 | 0.00 | 0.00 | 48 | 1015.0 |
| 20260510124325 | 56 | 8 | 1.7 | 6.1 | 0.00 | 0.00 | 0.00 | 48 | 1015.1 |
| 20260510123825 | 56 | 0 | 2.6 | 6.1 | 0.00 | 0.00 | 0.00 | 48 | 1015.2 |
| 20260510123324 | 56 | 58 | 2.6 | 7.8 | 0.00 | 0.00 | 0.00 | 48 | 1015.2 |
| 20260510123221 | 56 | 21 | 3.5 | 11.3 | 0.00 | 0.00 | 0.00 | 48 | 1015.3 |
| 20260510122324 | 56 | 114 | 4.3 | 11.3 | 0.00 | 0.00 | 0.00 | 47 | 1015.3 |
| 20260510121827 | 57 | 49 | 5.2 | 11.3 | 0.00 | 0.00 | 0.00 | 47 | 1015.3 |
| 20260510121324 | 57 | 69 | 3.5 | 10.4 | 0.00 | 0.00 | 0.00 | 47 | 1015.2 |
| 20260510120822 | 57 | 44 | 5.2 | 11.3 | 0.00 | 0.00 | 0.00 | 47 | 1015.3 |
| 20260510120324 | 57 | 72 | 5.2 | 11.3 | 0.00 | 0.00 | 0.00 | 47 | 1015.3 |
| 20260510115822 | 57 | 6 | 4.3 | 12.2 | 0.00 | 0.00 | 0.00 | 46 | 1015.2 |
| 20260510115324 | 57 | 68 | 5.2 | 12.2 | 0.00 | 0.00 | 0.00 | 46 | 1015.2 |
| 20260510114825 | 57 | 45 | 5.2 | 12.2 | 0.00 | 0.00 | 0.00 | 46 | 1015.3 |
| 20260510114325 | 57 | 55 | 5.2 | 12.2 | 0.00 | 0.00 | 0.00 | 46 | 1015.2 |
| 20260510113824 | 57 | 351 | 3.5 | 11.3 | 0.00 | 0.00 | 0.00 | 47 | 1015.4 |
| 20260510113324 | 57 | 42 | 3.5 | 8.7 | 0.00 | 0.00 | 0.00 | 47 | 1015.4 |
| 20260510112823 | 57 | 30 | 4.3 | 8.7 | 0.00 | 0.00 | 0.00 | 46 | 1015.4 |
| 20260510112322 | 57 | 47 | 3.5 | 6.1 | 0.00 | 0.00 | 0.00 | 47 | 1015.5 |
| 20260510112218 | 57 | 13 | 2.6 | 7.8 | 0.00 | 0.00 | 0.00 | 47 | 1015.5 |
| 20260510111324 | 57 | 316 | 1.7 | 9.6 | 0.00 | 0.00 | 0.00 | 47 | 1015.5 |
| 20260510111220 | 57 | 16 | 4.3 | 9.6 | 0.00 | 0.00 | 0.00 | 47 | 1015.5 |
| 20260510110322 | 57 | 30 | 2.6 | 10.4 | 0.00 | 0.00 | 0.00 | 47 | 1015.7 |
| 20260510105824 | 57 | 42 | 3.5 | 10.4 | 0.00 | 0.00 | 0.00 | 47 | 1015.8 |
| 20260510105322 | 56 | 73 | 5.2 | 10.4 | 0.00 | 0.00 | 0.00 | 47 | 1015.6 |
| 20260510104822 | 56 | 76 | 3.5 | 10.4 | 0.00 | 0.00 | 0.00 | 48 | 1015.7 |
| 20260510104322 | 56 | 42 | 3.5 | 11.3 | 0.00 | 0.00 | 0.00 | 48 | 1015.8 |
| 20260510103823 | 55 | 30 | 3.5 | 11.3 | 0.00 | 0.00 | 0.00 | 48 | 1015.8 |
| 20260510103324 | 55 | 63 | 3.5 | 13.0 | 0.00 | 0.00 | 0.00 | 48 | 1015.9 |
| 20260510102821 | 55 | 45 | 2.6 | 13.0 | 0.00 | 0.00 | 0.00 | 48 | 1015.8 |
| 20260510102720 | 55 | 76 | 5.2 | 12.2 | 0.00 | 0.00 | 0.00 | 48 | 1015.9 |
| 20260510101820 | 55 | 41 | 3.5 | 12.2 | 0.00 | 0.00 | 0.00 | 48 | 1016.0 |
| 20260510101318 | 55 | 28 | 4.3 | 7.8 | 0.00 | 0.00 | 0.00 | 49 | 1015.9 |
| 20260510100818 | 54 | 30 | 3.5 | 10.4 | 0.00 | 0.00 | 0.00 | 49 | 1015.9 |
| 20260510100318 | 54 | 1 | 3.5 | 10.4 | 0.00 | 0.00 | 0.00 | 49 | 1015.9 |
| 20260510095817 | 54 | 37 | 2.6 | 10.4 | 0.00 | 0.00 | 0.00 | 49 | 1015.9 |
| 20260510095318 | 54 | 78 | 3.5 | 7.8 | 0.00 | 0.00 | 0.00 | 50 | 1016.0 |
| 20260510094816 | 54 | 1 | 1.7 | 9.6 | 0.00 | 0.00 | 0.00 | 50 | 1016.0 |
| 20260510094713 | 54 | 28 | 3.5 | 9.6 | 0.00 | 0.00 | 0.00 | 50 | 1016.0 |
| 20260510093817 | 53 | 1 | 3.5 | 9.6 | 0.00 | 0.00 | 0.00 | 50 | 1016.1 |
| 20260510093312 | 53 | 83 | 2.6 | 11.3 | 0.00 | 0.00 | 0.00 | 51 | 1016.1 |
| 20260510092812 | 53 | 76 | 3.5 | 11.3 | 0.00 | 0.00 | 0.00 | 50 | 1016.1 |
| 20260510092704 | 53 | 1 | 2.6 | 7.8 | 0.00 | 0.00 | 0.00 | 51 | 1016.1 |
| 20260510091812 | 52 | 6 | 3.5 | 8.7 | 0.00 | 0.00 | 0.00 | 51 | 1016.2 |
| 20260510091311 | 52 | 14 | 3.5 | 8.7 | 0.00 | 0.00 | 0.00 | 51 | 1016.1 |
| 20260510090811 | 52 | 49 | 3.5 | 8.7 | 0.00 | 0.00 | 0.00 | 51 | 1016.2 |
| 20260510090310 | 52 | 35 | 1.7 | 11.3 | 0.00 | 0.00 | 0.00 | 52 | 1016.2 |
| 20260510085809 | 52 | 61 | 4.3 | 11.3 | 0.00 | 0.00 | 0.00 | 51 | 1016.3 |
| 20260510085311 | 52 | 348 | 3.5 | 8.7 | 0.00 | 0.00 | 0.00 | 52 | 1016.4 |
| 20260510084807 | 52 | 44 | 2.6 | 7.8 | 0.00 | 0.00 | 0.00 | 52 | 1016.3 |
| 20260510084308 | 52 | 25 | 3.5 | 8.7 | 0.00 | 0.00 | 0.00 | 52 | 1016.4 |
| 20260510083940 | 52 | 351 | 3.5 | 12.2 | 0.00 | 0.00 | 0.00 | 52 | 1016.4 |
| 20260510083204 | 52 | 24 | 3.5 | 11.3 | 0.00 | 0.00 | 0.00 | 52 | 1016.4 |
| 20260510082306 | 52 | 16 | 2.6 | 6.1 | 0.00 | 0.00 | 0.00 | 52 | 1016.4 |
| 20260510081804 | 51 | 21 | 2.6 | 8.7 | 0.00 | 0.00 | 0.00 | 52 | 1016.4 |
| 20260510081302 | 51 | 306 | 2.6 | 6.1 | 0.00 | 0.00 | 0.00 | 53 | 1016.5 |
| 20260510080804 | 51 | 38 | 3.5 | 6.1 | 0.00 | 0.00 | 0.00 | 53 | 1016.5 |
| 20260510080433 | 51 | 30 | 3.5 | 6.1 | 0.00 | 0.00 | 0.00 | 53 | 1016.5 |
| 20260510075306 | 51 | 45 | 1.7 | 7.8 | 0.00 | 0.00 | 0.00 | 54 | 1016.5 |
| 20260510074802 | 51 | 21 | 2.6 | 7.8 | 0.00 | 0.00 | 0.00 | 54 | 1016.6 |
| 20260510074302 | 51 | 49 | 2.6 | 6.1 | 0.00 | 0.00 | 0.00 | 54 | 1016.5 |
| 20260510073803 | 51 | 17 | 2.6 | 6.1 | 0.00 | 0.00 | 0.00 | 54 | 1016.6 |
| 20260510073304 | 51 | 51 | 1.7 | 6.1 | 0.00 | 0.00 | 0.00 | 54 | 1016.6 |
| 20260510072803 | 51 | 20 | 2.6 | 10.4 | 0.00 | 0.00 | 0.00 | 55 | 1016.4 |
| 20260510072657 | 50 | 10 | 2.6 | 10.4 | 0.00 | 0.00 | 0.00 | 55 | 1016.5 |
| 20260510071804 | 50 | 142 | 2.6 | 11.3 | 0.00 | 0.00 | 0.00 | 55 | 1016.5 |
| 20260510071306 | 50 | 45 | 3.5 | 11.3 | 0.00 | 0.00 | 0.00 | 55 | 1016.5 |
| 20260510070805 | 50 | 37 | 1.7 | 5.2 | 0.00 | 0.00 | 0.00 | 55 | 1016.4 |
| 20260510070303 | 50 | 331 | 2.6 | 9.6 | 0.00 | 0.00 | 0.00 | 55 | 1016.5 |
| 20260510065806 | 50 | 49 | 2.6 | 10.4 | 0.00 | 0.00 | 0.00 | 56 | 1016.5 |
| 20260510065306 | 50 | 73 | 3.5 | 10.4 | 0.00 | 0.00 | 0.00 | 56 | 1016.4 |
| 20260510064804 | 50 | 103 | 1.7 | 6.1 | 0.00 | 0.00 | 0.00 | 56 | 1016.5 |
| 20260510064657 | 50 | 30 | 3.5 | 5.2 | 0.00 | 0.00 | 0.00 | 56 | 1016.5 |
| 20260510063804 | 50 | 30 | 1.7 | 4.3 | 0.00 | 0.00 | 0.00 | 57 | 1016.6 |
| 20260510063304 | 50 | 1 | 1.7 | 4.3 | 0.00 | 0.00 | 0.00 | 57 | 1016.5 |
| 20260510063159 | 50 | 71 | 1.7 | 4.3 | 0.00 | 0.00 | 0.00 | 57 | 1016.4 |
| 20260510062307 | 50 | 13 | 1.7 | 5.2 | 0.00 | 0.00 | 0.00 | 57 | 1016.4 |
| 20260510061805 | 50 | 25 | 2.6 | 5.2 | 0.00 | 0.00 | 0.00 | 57 | 1016.3 |
| 20260510061305 | 50 | 10 | 1.7 | 5.2 | 0.00 | 0.00 | 0.00 | 57 | 1016.4 |
| 20260510060805 | 49 | 343 | 0.9 | 6.1 | 0.00 | 0.00 | 0.00 | 57 | 1016.3 |
| 20260510060306 | 49 | 344 | 1.7 | 6.1 | 0.00 | 0.00 | 0.00 | 57 | 1016.3 |
| 20260510055804 | 49 | 1 | 1.7 | 5.2 | 0.00 | 0.00 | 0.00 | 58 | 1016.2 |
| 20260510055306 | 49 | 10 | 1.7 | 5.2 | 0.00 | 0.00 | 0.00 | 58 | 1016.2 |
| 20260510054807 | 49 | 20 | 1.7 | 4.3 | 0.00 | 0.00 | 0.00 | 58 | 1016.1 |
| 20260510054304 | 49 | 1 | 1.7 | 5.2 | 0.00 | 0.00 | 0.00 | 58 | 1016.1 |
| 20260510053806 | 49 | 37 | 1.7 | 5.2 | 0.00 | 0.00 | 0.00 | 58 | 1016.2 |
| 20260510053655 | 49 | 72 | 1.7 | 3.5 | 0.00 | 0.00 | 0.00 | 58 | 1016.2 |
| 20260510052804 | 49 | 16 | 1.7 | 3.5 | 0.00 | 0.00 | 0.00 | 58 | 1016.2 |
| 20260510052306 | 49 | 17 | 1.7 | 3.5 | 0.00 | 0.00 | 0.00 | 58 | 1016.2 |
| 20260510051803 | 49 | 51 | 1.7 | 4.3 | 0.00 | 0.00 | 0.00 | 58 | 1016.3 |
| 20260510051304 | 49 | 45 | 1.7 | 4.3 | 0.00 | 0.00 | 0.00 | 58 | 1016.2 |
| 20260510050803 | 49 | 82 | 1.7 | 4.3 | 0.00 | 0.00 | 0.00 | 58 | 1016.2 |
| 20260510050305 | 49 | 16 | 0.9 | 4.3 | 0.00 | 0.00 | 0.00 | 58 | 1016.2 |
| 20260510045805 | 49 | 1 | 1.7 | 4.3 | 0.00 | 0.00 | 0.00 | 59 | 1016.2 |
| 20260510045306 | 49 | 35 | 0.9 | 4.3 | 0.00 | 0.00 | 0.00 | 59 | 1016.1 |
| 20260510045156 | 49 | 1 | 1.7 | 4.3 | 0.00 | 0.00 | 0.00 | 59 | 1016.1 |
| 20260510044305 | 49 | 20 | 1.7 | 4.3 | 0.00 | 0.00 | 0.00 | 59 | 1016.1 |
| 20260510043804 | 49 | 303 | 1.7 | 4.3 | 0.00 | 0.00 | 0.00 | 59 | 1016.1 |
| 20260510043305 | 49 | 89 | 1.7 | 4.3 | 0.00 | 0.00 | 0.00 | 59 | 1016.1 |
| 20260510042804 | 49 | 336 | 1.7 | 3.5 | 0.00 | 0.00 | 0.00 | 58 | 1016.1 |
| 20260510042306 | 49 | 51 | 1.7 | 3.5 | 0.00 | 0.00 | 0.00 | 58 | 1016.2 |
| 20260510042159 | 49 | 1 | 1.7 | 3.5 | 0.00 | 0.00 | 0.00 | 58 | 1016.2 |
| 20260510041306 | 49 | 1 | 1.7 | 3.5 | 0.00 | 0.00 | 0.00 | 58 | 1016.2 |
| 20260510040805 | 49 | 45 | 0.9 | 1.7 | 0.00 | 0.00 | 0.00 | 58 | 1016.3 |
| 20260510040304 | 49 | 13 | 0.9 | 3.5 | 0.00 | 0.00 | 0.00 | 58 | 1016.3 |
| 20260510035805 | 49 | 1 | 0.9 | 3.5 | 0.00 | 0.00 | 0.00 | 58 | 1016.3 |
| 20260510035306 | 49 | 68 | 1.7 | 4.3 | 0.00 | 0.00 | 0.00 | 58 | 1016.4 |
| 20260510034806 | 49 | 45 | 1.7 | 4.3 | 0.00 | 0.00 | 0.00 | 58 | 1016.3 |
| 20260510034304 | 49 | 348 | 0.9 | 5.2 | 0.00 | 0.00 | 0.00 | 58 | 1016.3 |
| 20260510033806 | 49 | 1 | 1.7 | 5.2 | 0.00 | 0.00 | 0.00 | 58 | 1016.4 |
| 20260510033304 | 49 | 16 | 1.7 | 5.2 | 0.00 | 0.00 | 0.00 | 58 | 1016.5 |
| 20260510032805 | 49 | 314 | 0.9 | 3.5 | 0.00 | 0.00 | 0.00 | 58 | 1016.5 |
| 20260510032306 | 49 | 10 | 1.7 | 4.3 | 0.00 | 0.00 | 0.00 | 58 | 1016.6 |
| 20260510031805 | 49 | 285 | 0.9 | 4.3 | 0.00 | 0.00 | 0.00 | 58 | 1016.6 |
| 20260510031304 | 50 | 329 | 0.9 | 3.5 | 0.00 | 0.00 | 0.00 | 58 | 1016.6 |
| 20260510030804 | 50 | 341 | 1.7 | 5.2 | 0.00 | 0.00 | 0.00 | 58 | 1016.7 |
| 20260510030305 | 50 | 39 | 1.7 | 5.2 | 0.00 | 0.00 | 0.00 | 58 | 1016.6 |
| 20260510025804 | 50 | 32 | 0.9 | 4.3 | 0.00 | 0.00 | 0.00 | 58 | 1016.6 |
| 20260510025306 | 50 | 45 | 1.7 | 4.3 | 0.00 | 0.00 | 0.00 | 58 | 1016.6 |
| 20260510024805 | 50 | 314 | 1.7 | 5.2 | 0.00 | 0.00 | 0.00 | 58 | 1016.6 |
| 20260510024303 | 50 | 39 | 1.7 | 5.2 | 0.00 | 0.00 | 0.00 | 58 | 1016.5 |
| 20260510023803 | 50 | 254 | 1.7 | 4.3 | 0.00 | 0.00 | 0.00 | 57 | 1016.5 |
| 20260510023303 | 50 | 17 | 1.7 | 4.3 | 0.00 | 0.00 | 0.00 | 57 | 1016.5 |
| 20260510022803 | 51 | 320 | 1.7 | 4.3 | 0.00 | 0.00 | 0.00 | 57 | 1016.5 |
| 20260510022306 | 51 | 56 | 1.7 | 6.1 | 0.00 | 0.00 | 0.00 | 57 | 1016.6 |
| 20260510022201 | 51 | 89 | 1.7 | 6.1 | 0.00 | 0.00 | 0.00 | 57 | 1016.5 |
| 20260510021304 | 51 | 1 | 1.7 | 4.3 | 0.00 | 0.00 | 0.00 | 57 | 1016.6 |
| 20260510020804 | 51 | 23 | 1.7 | 5.2 | 0.00 | 0.00 | 0.00 | 56 | 1016.6 |
| 20260510020528 | 51 | 39 | 1.7 | 5.2 | 0.00 | 0.00 | 0.00 | 56 | 1016.6 |
| 20260510015306 | 51 | 37 | 1.7 | 5.2 | 0.00 | 0.00 | 0.00 | 55 | 1016.5 |
| 20260510014803 | 51 | 13 | 1.7 | 5.2 | 0.00 | 0.00 | 0.00 | 54 | 1016.5 |
| 20260510014703 | 51 | 45 | 1.7 | 3.5 | 0.00 | 0.00 | 0.00 | 54 | 1016.4 |
| 20260510013804 | 51 | 312 | 1.7 | 4.3 | 0.00 | 0.00 | 0.00 | 53 | 1016.4 |
| 20260510013302 | 51 | 32 | 1.7 | 5.2 | 0.00 | 0.00 | 0.00 | 52 | 1016.5 |
| 20260510012803 | 52 | 45 | 1.7 | 5.2 | 0.00 | 0.00 | 0.00 | 51 | 1016.5 |
| 20260510012307 | 52 | 32 | 1.7 | 4.3 | 0.00 | 0.00 | 0.00 | 49 | 1016.5 |
| 20260510012159 | 52 | 317 | 1.7 | 4.3 | 0.00 | 0.00 | 0.00 | 48 | 1016.5 |
| 20260510011700 | 53 | 38 | 1.7 | 3.5 | 0.00 | 0.00 | 0.00 | 48 | 1016.5 |
| 20260510010800 | 53 | 20 | 0.9 | 2.6 | 0.00 | 0.00 | 0.00 | 48 | 1016.4 |
| 20260510010302 | 53 | 269 | 0.9 | 3.5 | 0.00 | 0.00 | 0.00 | 48 | 1016.6 |
| 20260510005800 | 53 | 56 | 0.9 | 5.2 | 0.00 | 0.00 | 0.00 | 48 | 1016.4 |
| 20260510005301 | 53 | 28 | 2.6 | 5.2 | 0.00 | 0.00 | 0.00 | 48 | 1016.4 |
| 20260510004802 | 53 | 7 | 0.9 | 4.3 | 0.00 | 0.00 | 0.00 | 47 | 1016.4 |
| 20260510004302 | 53 | 20 | 0.9 | 5.2 | 0.00 | 0.00 | 0.00 | 47 | 1016.4 |
| 20260510003756 | 54 | 1 | 1.7 | 5.2 | 0.00 | 0.00 | 0.00 | 47 | 1016.5 |
| 20260510003257 | 54 | 28 | 1.7 | 3.5 | 0.00 | 0.00 | 0.00 | 46 | 1016.5 |
| 20260510002757 | 54 | 314 | 0.9 | 2.6 | 0.00 | 0.00 | 0.00 | 46 | 1016.6 |
| 20260510002255 | 54 | 28 | 1.7 | 3.5 | 0.00 | 0.00 | 0.00 | 46 | 1016.5 |
| 20260510001755 | 54 | 314 | 1.7 | 3.5 | 0.00 | 0.00 | 0.00 | 46 | 1016.6 |
| 20260510001255 | 54 | 38 | 1.7 | 3.5 | 0.00 | 0.00 | 0.00 | 46 | 1016.6 |
| 20260510001148 | 54 | 319 | 0.9 | 3.5 | 0.00 | 0.00 | 0.00 | 46 | 1016.5 |
| 20260510000253 | 54 | 23 | 1.7 | 3.5 | 0.00 | 0.00 | 0.00 | 45 | 1016.5 |
| 20260509235752 | 54 | 344 | 1.7 | 3.5 | 0.00 | 0.00 | 0.00 | 45 | 1016.5 |
| 20260509235640 | 54 | 327 | 1.7 | 2.6 | 0.00 | 0.00 | 0.00 | 45 | 1016.4 |
| 20260509234751 | 54 | 341 | 1.7 | 2.6 | 0.00 | 0.00 | 0.00 | 45 | 1016.6 |
| 20260509234252 | 54 | 56 | 0.9 | 4.3 | 0.00 | 0.00 | 0.00 | 44 | 1016.4 |
| 20260509233750 | 55 | 351 | 0.9 | 4.3 | 0.00 | 0.00 | 0.00 | 44 | 1016.4 |
| 20260509233252 | 55 | 45 | 0.9 | 2.6 | 0.00 | 0.00 | 0.00 | 44 | 1016.4 |
| 20260509232752 | 55 | 1 | 1.7 | 1.7 | 0.00 | 0.00 | 0.00 | 44 | 1016.4 |
| 20260509232251 | 55 | 45 | 0.9 | 1.7 | 0.00 | 0.00 | 0.00 | 44 | 1016.4 |
| 20260509232149 | 55 | 20 | 1.7 | 3.5 | 0.00 | 0.00 | 0.00 | 44 | 1016.4 |
| 20260509231246 | 55 | 17 | 1.7 | 3.5 | 0.00 | 0.00 | 0.00 | 43 | 1016.4 |
| 20260509230748 | 55 | 45 | 0.9 | 3.5 | 0.00 | 0.00 | 0.00 | 43 | 1016.4 |
| 20260509230638 | 55 | 1 | 1.7 | 3.5 | 0.00 | 0.00 | 0.00 | 42 | 1016.4 |
| 20260509230151 | 55 | 89 | 0.9 | 2.6 | 0.00 | 0.00 | 0.00 | 42 | 1016.3 |
| 20260509225246 | 56 | 35 | 0.9 | 3.5 | 0.00 | 0.00 | 0.00 | 41 | 1016.4 |
| 20260509224744 | 56 | 56 | 1.7 | 3.5 | 0.00 | 0.00 | 0.00 | 41 | 1016.4 |
| 20260509224639 | 56 | 45 | 0.9 | 3.5 | 0.00 | 0.00 | 0.00 | 41 | 1016.3 |
| 20260509224144 | 56 | 324 | 0.9 | 3.5 | 0.00 | 0.00 | 0.00 | 41 | 1016.4 |
| 20260509223635 | 56 | 37 | 1.7 | 5.2 | 0.00 | 0.00 | 0.00 | 40 | 1016.3 |
| 20260509222741 | 56 | 94 | 1.7 | 5.2 | 0.00 | 0.00 | 0.00 | 40 | 1016.4 |
| 20260509222242 | 56 | 20 | 1.7 | 4.3 | 0.00 | 0.00 | 0.00 | 39 | 1016.3 |
| 20260509221743 | 56 | 72 | 0.9 | 2.6 | 0.00 | 0.00 | 0.00 | 39 | 1016.3 |
| 20260509221643 | 56 | 63 | 0.0 | 3.5 | 0.00 | 0.00 | 0.00 | 39 | 1016.4 |
| 20260509220740 | 56 | 76 | 1.7 | 6.1 | 0.00 | 0.00 | 0.00 | 39 | 1016.4 |
| 20260509220237 | 56 | 45 | 1.7 | 6.1 | 0.00 | 0.00 | 0.00 | 38 | 1016.3 |
| 20260509220136 | 56 | 39 | 1.7 | 3.5 | 0.00 | 0.00 | 0.00 | 38 | 1016.3 |
| 20260509215238 | 57 | 76 | 1.7 | 3.5 | 0.00 | 0.00 | 0.00 | 38 | 1016.3 |
| 20260509214734 | 57 | 45 | 0.9 | 5.2 | 0.00 | 0.00 | 0.00 | 37 | 1016.3 |
| 20260509214235 | 57 | 45 | 1.7 | 5.2 | 0.00 | 0.00 | 0.00 | 37 | 1016.3 |
| 20260509213736 | 57 | 1 | 1.7 | 5.2 | 0.00 | 0.00 | 0.00 | 36 | 1016.4 |
| 20260509213236 | 57 | 310 | 1.7 | 4.3 | 0.00 | 0.00 | 0.00 | 36 | 1016.4 |
| 20260509212733 | 57 | 35 | 1.7 | 3.5 | 0.00 | 0.00 | 0.00 | 36 | 1016.5 |
| 20260509212234 | 57 | 59 | 0.9 | 3.5 | 0.00 | 0.00 | 0.00 | 35 | 1016.4 |
| 20260509211733 | 58 | 45 | 0.9 | 3.5 | 0.00 | 0.00 | 0.00 | 35 | 1016.5 |
| 20260509211415 | 58 | 76 | 1.7 | 6.1 | 0.00 | 0.00 | 0.00 | 35 | 1016.2 |
| 20260509211325 | 58 | 76 | 1.7 | 4.3 | 0.00 | 0.00 | 0.00 | 35 | 1016.3 |
| 20260509205733 | 58 | 28 | 1.7 | 3.5 | 0.00 | 0.00 | 0.00 | 35 | 1016.2 |
| 20260509205232 | 59 | 178 | 0.9 | 3.5 | 0.00 | 0.00 | 0.00 | 35 | 1016.1 |
| 20260509204732 | 59 | 54 | 0.9 | 6.1 | 0.00 | 0.00 | 0.00 | 35 | 1016.1 |
| 20260509204234 | 59 | 45 | 1.7 | 6.1 | 0.00 | 0.00 | 0.00 | 34 | 1016.0 |
| 20260509203734 | 59 | 38 | 1.7 | 6.1 | 0.00 | 0.00 | 0.00 | 34 | 1016.0 |
| 20260509203612 | 59 | 42 | 1.7 | 3.5 | 0.00 | 0.00 | 0.00 | 35 | 1015.9 |
| 20260509203116 | 60 | 45 | 1.7 | 4.3 | 0.00 | 0.00 | 0.00 | 34 | 1015.9 |
| 20260509202218 | 60 | 51 | 2.6 | 6.1 | 0.00 | 0.00 | 0.00 | 34 | 1016.0 |
| 20260509201718 | 60 | 65 | 1.7 | 6.1 | 0.00 | 0.00 | 0.00 | 33 | 1015.9 |
| 20260509201217 | 60 | 75 | 2.6 | 6.1 | 0.00 | 0.00 | 0.00 | 33 | 1015.8 |
| 20260509200718 | 60 | 68 | 3.5 | 5.2 | 0.00 | 0.00 | 0.00 | 32 | 1015.8 |
| 20260509200216 | 60 | 72 | 2.6 | 5.2 | 0.00 | 0.00 | 0.00 | 33 | 1015.8 |
| 20260509195718 | 61 | 35 | 2.6 | 6.1 | 0.00 | 0.00 | 0.00 | 33 | 1015.7 |
| 20260509195217 | 61 | 45 | 1.7 | 6.1 | 0.00 | 0.00 | 0.00 | 33 | 1015.8 |
| 20260509194719 | 61 | 55 | 2.6 | 7.8 | 0.00 | 0.00 | 0.00 | 33 | 1015.8 |
| 20260509194218 | 61 | 73 | 2.6 | 7.8 | 0.00 | 0.00 | 0.00 | 33 | 1015.7 |
| 20260509193718 | 62 | 17 | 1.7 | 5.2 | 0.00 | 0.00 | 0.00 | 33 | 1015.7 |
| 20260509193357 | 62 | 61 | 1.7 | 5.2 | 0.00 | 0.00 | 0.00 | 33 | 1015.6 |
| 20260509192217 | 62 | 41 | 1.7 | 4.3 | 0.00 | 0.00 | 0.00 | 34 | 1015.5 |
| 20260509191717 | 62 | 39 | 1.7 | 4.3 | 0.00 | 0.00 | 0.00 | 33 | 1015.5 |
| 20260509191216 | 62 | 28 | 1.7 | 5.2 | 0.00 | 0.00 | 0.00 | 34 | 1015.6 |
| 20260509190717 | 63 | 45 | 2.6 | 5.2 | 0.00 | 0.00 | 0.00 | 34 | 1015.5 |
| 20260509190215 | 63 | 75 | 2.6 | 6.1 | 0.00 | 0.00 | 0.00 | 34 | 1015.4 |
| 20260509185716 | 63 | 45 | 3.5 | 6.1 | 0.00 | 0.00 | 0.00 | 33 | 1015.3 |
| 20260509185216 | 63 | 56 | 1.7 | 6.1 | 0.00 | 0.00 | 0.00 | 33 | 1015.3 |
| 20260509184717 | 64 | 38 | 2.6 | 6.1 | 0.00 | 0.00 | 0.00 | 32 | 1015.3 |
| 20260509184216 | 64 | 41 | 3.5 | 6.1 | 0.00 | 0.00 | 0.00 | 31 | 1015.4 |
| 20260509183717 | 64 | 61 | 2.6 | 5.2 | 0.00 | 0.00 | 0.00 | 31 | 1015.4 |
| 20260509183608 | 64 | 16 | 2.6 | 6.1 | 0.00 | 0.00 | 0.00 | 31 | 1015.2 |
| 20260509183119 | 64 | 28 | 2.6 | 6.1 | 0.00 | 0.00 | 0.00 | 31 | 1015.2 |
| 20260509182215 | 65 | 68 | 2.6 | 6.1 | 0.00 | 0.00 | 0.00 | 31 | 1015.1 |
| 20260509181717 | 65 | 39 | 3.5 | 6.1 | 0.00 | 0.00 | 0.00 | 31 | 1015.1 |
| 20260509181214 | 65 | 28 | 2.6 | 6.1 | 0.00 | 0.00 | 0.00 | 31 | 1015.1 |
| 20260509180717 | 65 | 63 | 1.7 | 5.2 | 0.00 | 0.00 | 0.00 | 31 | 1015.0 |
| 20260509180214 | 65 | 48 | 2.6 | 6.1 | 0.00 | 0.00 | 0.00 | 31 | 1015.0 |
| 20260509180116 | 65 | 79 | 2.6 | 6.1 | 0.00 | 0.00 | 0.00 | 30 | 1014.9 |
| 20260509175609 | 66 | 89 | 1.7 | 6.1 | 0.00 | 0.00 | 0.00 | 31 | 1014.9 |
| 20260509175119 | 66 | 89 | 2.6 | 7.8 | 0.00 | 0.00 | 0.00 | 29 | 1014.9 |
| 20260509174212 | 66 | 63 | 3.5 | 9.6 | 0.00 | 0.00 | 0.00 | 30 | 1014.9 |
| 20260509173713 | 66 | 63 | 4.3 | 9.6 | 0.00 | 0.00 | 0.00 | 31 | 1014.8 |
| 20260509173609 | 67 | 66 | 3.5 | 8.7 | 0.00 | 0.00 | 0.00 | 30 | 1014.8 |
| 20260509172711 | 67 | 51 | 3.5 | 8.7 | 0.00 | 0.00 | 0.00 | 31 | 1014.7 |
| 20260509172211 | 67 | 54 | 2.6 | 7.8 | 0.00 | 0.00 | 0.00 | 30 | 1014.7 |
| 20260509171713 | 67 | 83 | 3.5 | 8.7 | 0.00 | 0.00 | 0.00 | 29 | 1014.7 |
| 20260509171208 | 68 | 72 | 4.3 | 8.7 | 0.00 | 0.00 | 0.00 | 29 | 1014.7 |
| 20260509170709 | 68 | 55 | 3.5 | 8.7 | 0.00 | 0.00 | 0.00 | 29 | 1014.8 |
| 20260509170208 | 69 | 52 | 4.3 | 8.7 | 0.00 | 0.00 | 0.00 | 28 | 1014.8 |
| 20260509165707 | 69 | 51 | 3.5 | 7.8 | 0.00 | 0.00 | 0.00 | 28 | 1014.8 |
| 20260509165206 | 69 | 45 | 2.6 | 6.1 | 0.00 | 0.00 | 0.00 | 28 | 1014.8 |
| 20260509164709 | 69 | 48 | 3.5 | 7.8 | 0.00 | 0.00 | 0.00 | 28 | 1014.9 |
| 20260509164205 | 70 | 76 | 4.3 | 7.8 | 0.00 | 0.00 | 0.00 | 27 | 1014.8 |
| 20260509164109 | 70 | 25 | 1.7 | 6.1 | 0.00 | 0.00 | 0.00 | 26 | 1014.7 |
| 20260509163604 | 71 | 65 | 1.7 | 6.1 | 0.00 | 0.00 | 0.00 | 26 | 1014.8 |
| 20260509162703 | 71 | 63 | 1.7 | 9.6 | 0.00 | 0.00 | 0.00 | 26 | 1014.8 |
| 20260509162556 | 71 | 78 | 4.3 | 8.7 | 0.00 | 0.00 | 0.00 | 26 | 1014.7 |
| 20260509161705 | 71 | 45 | 3.5 | 7.8 | 0.00 | 0.00 | 0.00 | 26 | 1014.6 |
| 20260509161558 | 71 | 54 | 4.3 | 7.8 | 0.00 | 0.00 | 0.00 | 26 | 1014.6 |
| 20260509160702 | 71 | 42 | 2.6 | 6.1 | 0.00 | 0.00 | 0.00 | 27 | 1014.7 |
| 20260509160200 | 71 | 45 | 1.7 | 8.7 | 0.00 | 0.00 | 0.00 | 27 | 1014.7 |
| 20260509155702 | 71 | 42 | 2.6 | 8.7 | 0.00 | 0.00 | 0.00 | 27 | 1014.7 |
| 20260509155200 | 71 | 89 | 1.7 | 6.1 | 0.00 | 0.00 | 0.00 | 27 | 1014.8 |
| 20260509154703 | 71 | 35 | 2.6 | 7.8 | 0.00 | 0.00 | 0.00 | 27 | 1015.0 |
| 20260509154340 | 70 | 351 | 1.7 | 7.8 | 0.00 | 0.00 | 0.00 | 27 | 1014.9 |
| 20260509153156 | 70 | 58 | 3.5 | 6.1 | 0.00 | 0.00 | 0.00 | 27 | 1015.0 |
| 20260509152659 | 70 | 42 | 1.7 | 7.8 | 0.00 | 0.00 | 0.00 | 28 | 1015.0 |
| 20260509152157 | 70 | 76 | 3.5 | 7.8 | 0.00 | 0.00 | 0.00 | 28 | 1015.2 |
| 20260509151657 | 70 | 35 | 2.6 | 6.1 | 0.00 | 0.00 | 0.00 | 27 | 1015.0 |
| 20260509151159 | 70 | 38 | 1.7 | 6.1 | 0.00 | 0.00 | 0.00 | 27 | 1015.1 |
| 20260509150659 | 70 | 99 | 1.7 | 6.1 | 0.00 | 0.00 | 0.00 | 28 | 1015.3 |
| 20260509150158 | 70 | 62 | 1.7 | 8.7 | 0.00 | 0.00 | 0.00 | 27 | 1015.3 |
| 20260509145656 | 70 | 54 | 2.6 | 8.7 | 0.00 | 0.00 | 0.00 | 26 | 1015.2 |
| 20260509145156 | 70 | 51 | 2.6 | 7.8 | 0.00 | 0.00 | 0.00 | 26 | 1015.2 |
| 20260509145050 | 70 | 61 | 4.3 | 7.8 | 0.00 | 0.00 | 0.00 | 26 | 1015.3 |
| 20260509144554 | 70 | 25 | 2.6 | 6.1 | 0.00 | 0.00 | 0.00 | 26 | 1015.2 |
| 20260509144054 | 70 | 72 | 4.3 | 7.8 | 0.00 | 0.00 | 0.00 | 26 | 1015.2 |
| 20260509143158 | 70 | 45 | 2.6 | 9.6 | 0.00 | 0.00 | 0.00 | 27 | 1015.2 |
| 20260509142658 | 71 | 45 | 4.3 | 9.6 | 0.00 | 0.00 | 0.00 | 27 | 1015.2 |
| 20260509142156 | 71 | 38 | 2.6 | 7.8 | 0.00 | 0.00 | 0.00 | 27 | 1015.1 |
| 20260509141656 | 71 | 59 | 3.5 | 8.7 | 0.00 | 0.00 | 0.00 | 26 | 1015.0 |
| 20260509141157 | 71 | 59 | 2.6 | 8.7 | 0.00 | 0.00 | 0.00 | 25 | 1015.0 |
| 20260509140656 | 71 | 37 | 2.6 | 7.8 | 0.00 | 0.00 | 0.00 | 27 | 1014.9 |